Таскескен

Казахстан     47°13′23″N   80°47′22″E
темп.,
°C
ветер,
м/с
пор.,
м/с
влажн.,
%
обл.,
%
осадки,
мм/ч
давл.,
гПа
погр.,
м
25 февраля, чт
чт2500:00−3ю5799100 3.9 1019288
03:00−3юз3898100 2.5 1019460
06:00−8з51395100 3.9 1024725
09:00−14сз4890100 0.6 1030459
12:00−14з2478100 0.6 1031605
15:00−13юз51085100 0.1 10311130
18:00−13юз4796100 0.9 1032618
21:00−14ю41097100 0.6 1033882
26 февраля, пт
пт2600:00−15юз4898100 1.4 1036504
03:00−18зсз1198100 0.4 103828
06:00−19с1197100 0.9 104032
09:00−19всв0097100 0.2 104156
12:00−18зсз0286100 0.4 1041388
15:00−17ю1184100 0.1 1040446
18:00−19в1194100 0.1 104120
21:00−20всв2286100 0.0 104320
27 февраля, сб
сб2700:00−19в2292100 0.1 104220
03:00−18в2294100 0.1 104120
06:00−19в2293100 0.1 104020
09:00−17в228699 0.0 103920
12:00−13ююв368199 0.0 1038385
15:00−11ююв3581100 0.0 1036434
18:00−14юв2288100 0.0 103720
21:00−14вюв2374100 0.0 103821
28 февраля, вс
вс2800:00−14вюв3474100 0.0 103829
03:00−15вюв447280 0.0 103846
06:00−15вюв456840 0.0 103979
09:00−12вюв6126614 0.0 1038256
12:00−8юв8146322 0.0 1034463
15:00−7юв8146789 0.0 1032421
18:00−8юв7147494 0.0 1031303
21:00−8юв71373100 0.0 1031272
1 марта, пн
пн100:00−8вюв71371100 0.0 1030259
03:00−7юв71464100 0.0 1028254
06:00−7вюв81560100 0.0 1027285
09:00−6юв71461100 0.0 1027282
12:00−5юв61265100 0.0 1025301
15:00−4юв5969100 0.0 1024261
18:00−6юв5867100 0.0 1024140
21:00−7юв51065100 0.0 1025147